Theta_e
325 327 332 330 332 332 337 340 340 343 341 340 342 344 344 342 340 340 341 342 340 339 341 344 347 349 349 347 348 347 347 345 345
323 326 332 331 332 333 338 340 341 341 343 342 342 343 344 344 343 342 343 344 344 342 343 346 348 350 351 348 349 351 348 345 346
321 325 332 332 332 332 339 341 343 343 343 342 342 343 343 344 346 344 345 345 343 346 345 344 346 347 348 348 347 346 346 347 347
319 326 330 332 332 333 336 342 344 344 343 343 342 344 343 343 343 345 344 345 346 345 345 344 342 343 343 343 340 338 338 342 345
320 326 331 332 332 332 334 340 343 344 344 345 344 346 344 344 344 344 344 344 345 348 345 345 343 342 339 337 337 337 336 339 345
321 324 329 330 331 331 333 340 343 345 346 346 347 346 345 345 345 344 344 345 345 346 348 346 344 343 341 340 339 338 338 339 345
322 323 325 329 329 329 337 340 342 345 346 348 348 347 345 344 345 346 346 346 346 345 348 348 345 343 342 342 341 341 341 342 344
322 320 325 329 328 329 333 338 341 346 347 348 349 348 346 345 346 347 348 347 348 349 348 349 349 347 345 344 343 344 345 347 347
322 322 323 331 333 332 333 337 339 345 346 348 349 348 347 348 347 347 347 346 345 345 348 349 350 349 348 345 350 343 342 347 347
319 320 321 324 335 336 336 337 340 341 346 348 348 347 347 347 347 347 347 346 345 344 345 348 349 350 348 346 347 337 337 341 345
319 320 322 330 335 336 336 339 340 343 344 345 346 346 345 345 346 346 345 347 347 347 346 345 346 347 347 346 345 338 335 337 341
322 326 322 332 334 333 338 338 342 343 343 344 344 344 347 346 345 346 346 346 347 347 344 344 344 345 344 344 342 330 330 335 339
323 323 324 326 327 331 339 341 346 344 344 345 346 347 348 349 348 347 347 344 344 343 343 343 345 344 344 337 340 324 324 330 338
326 325 328 330 326 324 325 338 347 345 346 345 348 349 348 346 345 343 343 342 343 342 346 347 345 343 341 336 332 326 320 321 334
321 322 325 328 326 326 327 329 336 344 345 347 350 348 347 342 341 343 341 340 339 342 343 342 340 338 333 331 325 319 316 316 318
323 324 328 329 321 322 328 329 331 335 343 348 346 344 340 339 340 340 340 339 341 340 339 336 333 335 331 324 322 321 315 315 316
320 325 327 328 325 323 325 326 330 339 346 346 344 339 337 338 337 338 340 340 340 336 335 333 332 331 327 325 322 320 319 321 322
317 323 330 326 324 322 325 326 328 333 345 344 341 339 338 337 335 331 320 315 316 327 319 324 333 332 331 328 324 323 317 318 322
316 322 325 325 325 324 324 324 326 330 343 344 341 338 338 336 332 324 319 317 314 305 305 303 303 307 322 320 313 306 304 304 306
315 321 325 327 327 326 324 325 328 327 341 344 340 338 338 335 332 325 322 321 320 317 312 305 301 301 304 307 306 301 299 299 301
Wind_Speed
15 13 16 19 21 19 20 20 19 18 17 16 14 15 14 12 12 8 6 7 6 6 6 7 7 7 6 7 6 6 5 3 4
13 12 17 21 19 17 19 20 20 20 18 16 16 16 12 10 12 11 9 8 5 5 7 6 7 8 8 7 7 7 6 4 5
12 13 17 17 18 18 17 20 19 18 18 19 17 16 12 11 9 9 7 6 7 7 7 7 7 7 8 8 7 7 6 4 4
11 17 19 18 17 19 16 18 18 18 17 16 15 14 13 12 10 7 7 7 6 7 6 7 7 7 7 7 7 7 6 6 6
9 14 17 17 17 17 15 19 18 19 17 16 16 15 13 14 11 10 7 9 8 6 7 7 9 8 7 7 7 7 7 6 6
9 9 13 13 14 17 18 18 18 18 17 17 15 14 14 13 12 11 12 11 9 7 6 7 7 7 8 8 8 7 7 7 7
6 8 1 11 16 16 16 18 18 18 16 16 14 15 14 14 14 13 12 11 9 8 8 7 7 7 8 8 8 8 8 8 8
4 6 8 7 8 12 13 16 16 16 14 14 14 14 13 14 12 11 11 9 9 9 7 9 9 8 8 8 7 7 8 8 8
2 10 7 9 8 9 13 18 18 16 15 15 15 14 15 13 11 11 12 9 8 8 8 8 8 9 9 9 8 11 14 10 7
6 6 9 6 12 15 16 18 18 17 16 14 14 14 12 11 10 11 11 10 9 10 10 8 11 11 8 8 7 10 10 11 6
8 6 6 7 3 6 7 8 13 11 13 14 14 12 9 9 10 11 9 10 11 9 6 11 10 7 7 6 5 7 9 10 5
8 7 7 5 7 6 7 9 7 10 12 13 13 13 13 12 11 10 9 10 10 8 5 4 5 4 6 5 4 6 9 7 4
10 10 9 9 10 11 4 11 13 12 12 12 12 12 12 9 9 10 9 8 6 4 4 5 4 4 4 5 4 3 4 4 2
12 4 3 5 1 6 8 6 12 15 13 15 11 8 7 7 7 7 6 5 3 4 3 4 4 5 4 5 4 3 3 1 2
11 7 5 2 4 5 6 5 6 8 13 9 12 10 9 8 7 6 5 5 4 5 5 5 4 6 4 3 3 4 3 3 2
7 8 8 2 5 6 5 5 3 5 3 10 11 11 9 7 9 7 5 5 5 4 5 5 5 5 4 3 2 2 2 4 4
7 6 5 4 5 3 5 4 4 6 7 10 13 13 10 7 8 7 5 4 4 5 5 5 5 5 4 4 3 3 3 3 3
7 7 7 6 4 6 9 7 4 4 8 11 12 13 11 8 7 6 6 5 4 2 2 1 7 6 6 7 4 5 6 6 4
4 5 6 6 8 7 10 2 1 3 7 10 13 11 9 8 8 6 5 5 4 10 7 4 5 4 7 2 4 10 9 9 8
6 3 5 9 11 11 6 13 7 7 10 12 8 13 12 10 10 8 8 7 6 6 2 5 6 6 7 8 11 10 11 9 8
Wind_Direction
194 197 190 189 186 183 180 176 174 174 178 182 181 187 193 192 193 196 189 186 199 206 204 208 201 192 191 194 204 207 205 229 236
203 199 195 191 184 183 177 177 180 179 179 184 187 192 189 186 190 190 199 196 195 197 200 200 195 194 188 186 198 206 198 219 235
196 197 199 192 191 182 175 182 179 180 183 186 188 188 193 196 188 185 187 190 195 197 192 182 187 187 182 185 189 193 183 202 229
193 186 192 189 190 189 177 179 179 181 182 180 188 189 191 192 196 188 191 201 202 205 173 180 185 182 181 190 193 194 190 205 213
166 178 182 184 185 180 174 181 180 182 181 181 190 190 189 190 190 196 195 212 213 205 195 182 187 181 191 199 210 201 203 212 225
169 168 176 170 172 181 182 180 179 182 184 187 185 185 188 193 186 192 209 214 214 208 211 195 187 180 186 190 216 206 213 212 219
23 67 50 178 179 183 177 178 178 183 186 185 182 185 188 192 188 195 207 213 205 209 203 203 199 195 200 199 197 207 210 211 218
230 101 117 154 189 182 173 177 181 182 184 182 183 184 190 196 197 190 200 205 200 207 202 210 208 201 204 209 208 217 216 214 213
20 305 176 149 172 174 174 177 181 178 180 183 181 185 195 195 190 185 197 204 208 205 212 212 215 202 205 204 217 214 214 202 205
232 242 317 254 184 178 180 180 176 177 179 173 182 190 192 194 181 189 198 201 207 217 223 207 216 221 206 223 216 225 223 219 221
199 210 243 292 194 153 165 163 179 168 162 175 182 188 185 179 189 198 198 200 207 214 203 211 208 207 204 205 216 217 212 212 215
310 298 202 220 274 160 149 145 150 158 166 175 182 187 187 182 184 194 202 206 211 204 192 193 188 187 196 197 178 185 157 160 201
328 45 57 38 353 315 160 168 165 165 175 172 190 190 188 176 171 178 191 196 187 193 173 203 190 171 171 162 158 189 167 171 178
325 359 8 104 358 295 341 319 171 177 180 185 180 157 141 146 149 165 164 149 138 164 139 122 120 121 106 105 122 135 127 153 201
318 335 315 260 250 262 294 341 334 184 186 169 142 143 137 129 124 120 122 134 146 139 118 128 129 118 98 90 111 120 112 114 134
293 301 312 297 306 304 352 26 345 297 233 141 133 132 134 143 141 130 151 151 137 121 149 148 141 145 147 153 175 120 108 106 103
296 283 259 230 279 287 279 292 321 268 155 149 143 138 138 142 130 135 141 133 163 154 163 155 150 156 159 162 166 177 178 145 123
282 281 282 287 219 228 245 221 214 350 166 170 152 142 143 137 134 127 97 69 29 125 33 172 170 181 171 162 189 213 180 160 151
279 277 270 285 270 276 294 141 307 307 209 174 150 140 149 149 133 129 130 126 99 40 42 18 86 158 163 125 156 142 148 158 160
287 307 244 242 255 288 321 294 287 240 243 172 157 157 162 156 144 152 155 149 156 150 64 56 49 51 120 131 149 147 147 150 132